Погода Мирный

Погода Мирный : погода сейчас, прогноз погоды и архив. Всё, что Вы хотите узнать о погоде Мирный!

Хотите узнать прогноз погоды Мирный? Тогда Вам сюда: Погода Мирный

Поиск расширенной информации на нашем сайте:

Другие новости

Новости СМИ2

Главная страница сайта

Новости сайта

03.07.2017

Напоминаем, что на нашем специализированном сайте Метеоцентр.Азия вы можете получить высокодетализированные автоматические прогнозы погоды по пунктам России, СНГ и мира в авиационном формате (включающие направление и скорость ветра, видимость, явления погоды, количество и форму облачности, нижнюю и верхнюю границу облачности).


Погода Мирный - сегодня

Время (UTC), дата Ветер
(°,м/с) 
Видим.   Явления Облачность Т
(°С)
Тd
(°С)
f(%) Тe
(°С)
Pmin
(гПа)
dP
(гПа)
Po
(мм)
O2
(г/м3)
Тmin Tmax R s Состояние
почвы
06 16.01.18 210 (ЮЗ) 10 км  слаб. снег  10/0 средняя, верхняя 
[As op|Cs]
-33.7 -36.6 75 -35  1012.2  0.2  721  334           
09 16.01.18 220 (ЮЗ) 10 км  слаб. снег  10/0 средняя, верхняя 
[As op|Cs]
-33.7 -36.6 75 -35  1013.2  722  334           
12 16.01.18 тихо ()   10 км  слаб. снег  10/0 верхняя 
[Cs]
-35.1 -38.7 69 -35  1014.1  0.7  723  336    -33.2  0.2     
15 16.01.18 210 (ЮЗ) 10 км  слаб. снег  10/0 верхняя 
[Cs]
-36.2 -39.7 70 -37  1014.8  0.5  723  338           
18 16.01.18 220 (ЮЗ) 10 км  слаб. снег  10/0 верхняя 
[Cs]
-35.2 -38.7 70 -36  1014.8  0.2  723  336           
21 16.01.18 170 (Ю) 20000 м  {снег}  10/0 верхняя 
[Cs]
-36.3 -39.7 71 -37  1015.4  0.4  724  338           
00 17.01.18 180 (Ю) 20000 м  в посл. час снег  10/0 верхняя 
[Cs]
-37.7 -41.2 70 -39  1015.8  -0.2  723  340  -38.5    0.3  38  равномерный
сухой снег
100% 
03 17.01.18 070 (В) 20000 м    10/0 верхняя 
[Cs]
-38.3 -41.6 71 -39  1016.4  0.6  724  341  -39.3         
06 17.01.18 070 (В) 20000 м    8/0 верхняя 
[Cs]
-36.2 -39 76 -41  1016  724  338           
09 17.01.18 030 (СВ) 20000 м    3/0 верхняя 
[Cs]
-39.2 -41.8 77 -44  1016.8  0.2  724  343           
12 17.01.18 020 (С) 4000 м  дымка  3/0 верхняя 
[Cs]
-41.8 -45 71 -49  1018  0.5  724  347    -35.6       
15 17.01.18 010 (С) 4000 м  дымка  4/3 300 м верхняя 
[St|Cs]
-42.6 -46.9 63 -50  1018  -0.2  724  348           
18 17.01.18 010 (С) 4000 м  дымка  4/3 300 м верхняя 
[St|Ci fib]
-44.4 -48.3 65 -52  1018.1  -0.2  724  350           
21 17.01.18 010 (С) 4000 м  дымка  8/0 верхняя 
[Ci fib]
-44.5 -48.3 66 -54  1018.3  724  351           
00 18.01.18 020 (С) 4000 м  слаб. снег  10/4 450 м верхняя 
[St|Cs]
-43.8 -48.3 61 -53  1018.1  724  350  -44.9    0.0  38  равномерный
сухой снег
100% 
03 18.01.18 030 (СВ) 4000 м  слаб. снег  10/4 360 м верхняя 
[St|Cs]
-43 -47.6 60 -52  1018.8  725  349           
06 18.01.18 030 (СВ) 4000 м  дымка{снег}  10/4 420 м верхняя 
[St|Cs]
-41.2 -45.1 66 -48  1020.2  1.7  726  347           
09 18.01.18 030 (СВ) 10 км  слаб. снег  10/0 средняя, верхняя 
[Ac trans|Cs]
-39.9 -44.1 64 -48  1022.3  2.3  728  345           
12 18.01.18 020 (С) 10 км  слаб. снег  10/0 средняя 
[As op]
-38 -41.6 69 -46  1025  730  344    -38  0.2     
15 18.01.18 040 (СВ) 20000 м  в посл. час снег  10/0 средняя 
[As op]
-35.8 -38.7 74 -45  1027.4  2.7  732  341           
18 18.01.18 020 (С) 10 км  слаб. снег  10/0 средняя 
[As op]
-35.9 -38.7 75 -42  1029.9  2.3  734  342           
21 18.01.18 020 (С) 20000 м  {снег}  10/0 средняя 
[As trans]
-36.5 -40.1 69 -43  1032.6  2.3  736  344           
00 19.01.18 340 (С) 20000 м  {снег}  10/0 средняя, верхняя 
[Ac trans|Cs]
-37.5 -41.9 64 -46  1034.4  1.7  737  346  -38    0.2  38  равномерный
сухой снег
100% 
03 19.01.18 340 (С) 10 км    10/0 средняя, верхняя 
[Ac trans|Cs]
-36.9 -41.1 65 -45  1035.4  738  346  -38.5         
06 19.01.18 330 (СЗ) 20000 м    10/0 верхняя 
[Cs]
-35.9 -40.1 65 -40  1036.9  1.7  739  345           
Время (UTC), дата Ветер
(°,м/с) 
Видим.   Явления Облачность Т
(°С)
Тd
(°С)
f(%) Тe
(°С)
Pmin
(гПа)
dP
(гПа)
Po
(мм)
O2
(г/м3)
Тmin Tmax R s Состояние
почвы

Для получения пояснительной информации подведите курсор к названию столбца.

ПОГОДА Мирный - архив

Всё, что Вы хотите узнать о погоде Мирный - удобно и подробно!

Выберите нужную дату (начиная с 1 января 2015* года) и нажмите кнопку "Найти".
Будут отображены архивные сводки погоды по пункту Мирный, начиная с указанной даты.


Отображать данные в формате CSV (для использования в таблицах Excel)


Внимание! Наш архив погоды предназначен исключительно для личного некоммерческого использования в познавательных целях. Если Вам необходимы официальные справки о состоянии погоды (для производственных, юридических, коммерческих и т.п. целей), обращайтесь в органы Росгидромета.

*Примечание: данная дата относится к архиву по метеостанциям СССР (Россия, СНГ, Балтия).
Архив по метеостанциям Зарубежной Европы и Азии (кроме Китая) хранится 10 дней, по другим регионам земного шара (Китай, Африка, Америка, Австралия, Океания) - 1 день.

Мирный - район местоположения метеостанции


Название, широта, долгота, высота метеостанции:
Мирный 62.5°ш. 114.0°д. 352 м над ур. моря [Российская Федерация]

Дополнительная информация

В oтличие oт бoльшинства пoгoдных сайтoв мы публикуем пoдрoбную метеoинфoрмацию в детальнoм прoфессиoнальнoм фoрмате.

Характеристики температуры и влажнoсти вoздуха измеряются на высoте 2 м в тени вдали oт зданий и деревьев.
Скoрoсть ветра измеряется на высoте 10 м (на урoвне рoста челoвека скoрoсть ветра ниже в 1.5-2 раза). Если метеoстанция нахoдится в гoрoде или в лесу, тo скoрoсть ветра занижена на 2-4 м/с пo сравнению с oткрытым местoм. Скoрoсть ветра над акватoриями крупных рек и oзёр, а также на вершинах хoлмoв на 2-5 м/с выше, чем в oбычных услoвиях.
Атмoсфернoе давление в разных тoчках местнoсти мoжет значительнo oтличаться oт давления на метеoстанции, в зависимoсти oт услoвий рельефа (при пoдъёме на 10 м давление пoнижается примернo на 1 мм рт.ст.).